Weather in Cuenca

Ecuador     2°53′52″S   79°01′33″W
В апреле 2022 года жителям России запретили посещать сайт meteo.paraplan.net по решению Генеральной прокуратуры. Аудитория сайта уменьшилась в 10 раз. Владельцы сайта не видят смысла в поддержке погодного сервера в таких условиях. Сайт будет закрыт в октябре.
temp.,
°C
wind,
m/s
gust,
m/s
humid.,
%
clouds,
%
prec.,
mm/h
press.,
hPa
HPBL,
m
3 october, mon
mon301:00+9nne128489 0.1 1021158
04:00+8ne228958 0.0 1020121
07:00+8nne128968 0.0 1022292
10:00+12ne347099 0.1 1021971
13:00+13ese2368100 0.7 10171125
16:00+13se3469100 0.6 1014966
19:00+11ese118599 1.0 101736
22:00+10ese1189100 0.3 101942
4 october, tue
tue401:00+8nne1194100 0.3 101821
04:00+7ene119589 0.0 101814
07:00+8ne119254 0.0 1020124
10:00+15ne3460100 0.0 10181078
13:00+17ese5451100 0.1 10131484
16:00+16se445840 1.1 10111270
19:00+11se228331 2.0 101514
22:00+9s11925 0.1 101810
5 october, wed
wed501:00+8wsw119310 0.1 101711
04:00+7sw1192100 0.0 101611
07:00+9ene00855 0.0 101870
10:00+15ene22616 0.1 10161057
13:00+19ese534998 1.1 10112073
16:00+16s336323 3.4 10101032
19:00+10sw3392100 7.9 101661
22:00+9s119512 1.1 101816
6 october, thu
thu601:00+9ssw1195100 1.1 101712
04:00+8sw1194100 0.0 101611
07:00+10ene118794 0.0 1018166
10:00+14ene227024 0.1 1017788
13:00+18se325156 1.3 10111711
16:00+17s335983 1.6 10101081
19:00+10sw339340 3.6 101655
22:00+10sw239699 0.5 101885
7 october, fri
fri701:00+10sw129386 0.6 1016108
04:00+9ssw119046 0.1 101612
07:00+10nne118892 0.1 101891
10:00+16ne3361100 0.2 10161192
13:00+18e445492 1.6 10121704
16:00+16ese335926 1.5 10101193
19:00+11s2286100 2.0 101433
22:00+10ssw239693 0.1 1017134